Location: Unspecified
(0.0000°N, 0.0000°E)
Time: 17:54:39
(UTC+00:00)

STARLINK 1045 - Pass Details

Date: 15 January 2020
Orbit: 548 x 551 km, 53.0° (Epoch: 17 January)

Event Time Altitude Azimuth Distance (km) Brightness Sun altitude
Rises 18:40:52 0° 341° (NNW) 2,699 7.1 -7.3°
Reaches altitude 10° 18:43:14 10° 351° (N) 1,810 6.1 -7.9°
Maximum altitude 18:46:58 33° 56° (NE) 921 4.2 -8.8°
Drops below altitude 10° 18:50:43 10° 121° (ESE) 1,819 5.9 -9.6°
Sets 18:53:06 0° 131° (SE) 2,715 6.9 -10.2°
